CKK8667 ZYCC-ZBTJ

Flight info

Callsign CKK8667
Flight time N/A
Altitude 30100
Route LEMOT8D LEMOT A588 VENOS W573 DBL W5 EKULI W576 OVTUP W55 DUMAP DUMAP3H
Aircraft B77L/H-SDE1E2E3FGHIJ2J3J4J5M1RWXY/LB1D1

Departure

Time 2026-04-16 05:42
Airport Changchun Longjia International Airport (ZYCC)

Arrival

Time N/A
Airport Tianjin Binhai International Airport (ZBTJ)
Time Latitude Longitude Altitude Speed Heading
2026-04-16 05:26 43.98760 125.67935 723 ft 0 kts 153°
2026-04-16 05:36 43.98767 125.67930 720 ft 4 kts 156°
2026-04-16 05:36 43.98791 125.67920 720 ft 4 kts 177°
2026-04-16 05:36 43.98816 125.67923 722 ft 4 kts 202°
2026-04-16 05:37 43.98831 125.67934 722 ft 4 kts 217°
2026-04-16 05:37 43.98857 125.67968 722 ft 3 kts 229°
2026-04-16 05:37 43.98859 125.67972 722 ft 1 kts 229°
2026-04-16 05:39 43.98858 125.67970 723 ft 2 kts 229°
2026-04-16 05:39 43.98827 125.67919 721 ft 12 kts 229°
2026-04-16 05:39 43.98826 125.67865 723 ft 9 kts 283°
2026-04-16 05:39 43.98882 125.67771 720 ft 17 kts 318°
2026-04-16 05:40 43.98882 125.67664 722 ft 14 kts 240°
2026-04-16 05:40 43.98799 125.67527 721 ft 23 kts 229°
2026-04-16 05:40 43.98722 125.67404 721 ft 12 kts 229°
2026-04-16 05:40 43.98647 125.67284 720 ft 21 kts 229°
2026-04-16 05:41 43.98606 125.67158 720 ft 14 kts 284°
2026-04-16 05:41 43.98700 125.67064 722 ft 21 kts
2026-04-16 05:41 43.98816 125.67196 725 ft 26 kts 50°
2026-04-16 05:41 43.99003 125.67501 723 ft 71 kts 49°
2026-04-16 05:42 43.99280 125.67944 722 ft 115 kts 49°
2026-04-16 05:42 44.00230 125.69466 725 ft 189 kts 50°
2026-04-16 05:42 44.01116 125.70982 945 ft 211 kts 49°
2026-04-16 05:42 44.02117 125.72583 1380 ft 224 kts 47°
2026-04-16 05:43 44.02789 125.73652 1987 ft 215 kts 46°
2026-04-16 05:43 44.04005 125.75593 3391 ft 190 kts 47°
2026-04-16 05:43 44.04849 125.76945 4020 ft 195 kts 47°
2026-04-16 05:43 44.05772 125.78423 4454 ft 211 kts 47°
2026-04-16 05:44 44.06766 125.80017 4839 ft 227 kts 48°
2026-04-16 05:44 44.07863 125.81782 5010 ft 256 kts 47°
2026-04-16 05:44 44.09090 125.83760 5278 ft 286 kts 48°
2026-04-16 05:44 44.10419 125.85915 5849 ft 301 kts 48°
2026-04-16 05:45 44.11611 125.87848 6455 ft 311 kts 47°
2026-04-16 05:45 44.12861 125.89877 7181 ft 314 kts 47°
2026-04-16 05:45 44.13806 125.91412 7813 ft 315 kts 47°
2026-04-16 05:45 44.15651 125.94579 8896 ft 320 kts 60°
2026-04-16 05:46 44.16208 125.96485 9311 ft 326 kts 81°
2026-04-16 05:46 44.15986 126.00596 10354 ft 319 kts 117°
2026-04-16 05:46 44.14890 126.03084 10974 ft 313 kts 142°
2026-04-16 05:46 44.13161 126.04804 11682 ft 303 kts 165°
2026-04-16 05:47 44.11166 126.05437 12487 ft 291 kts 186°
2026-04-16 05:47 44.09182 126.05138 13342 ft 285 kts 201°
2026-04-16 05:47 44.07461 126.04072 14079 ft 282 kts 214°
2026-04-16 05:47 44.05727 126.02625 14804 ft 286 kts 216°
2026-04-16 05:48 44.04032 126.01171 15521 ft 291 kts 216°
2026-04-16 05:48 44.02291 125.99684 16257 ft 294 kts 216°